Flag for Portugal Weather past 2 weeks in Lisbon, Portugal

Now
70 °F

Scattered clouds.


Feels Like: 70 °F
Forecast: 62 / 77 °F
Wind: 10 mph from Southwest

Location: Lisbon Portela Airport

Current Time: Jul 1, 2015 at 4:40:16 PM

Latest Report: Jul 1, 2015 at 4:00 PM


Visibility: N/A

Pressure: 30.01 "Hg

Humidity: 88%

Dew point: 66 °F

Location of LisbonLocation

Historic Weather in Lisbon — Graph

°F

Lisbon temperature yesterday

Maximum temperature yesterday: 82 °F (at 4:00 PM)
Minimum temperature yesterday: 61 °F (at 5:30 AM)
Average temperature yesterday: 68 °F

Past Weeks' High & Low Weather Summary

 TemperatureHumidityPressure
High95 °F (Jun 27, 3:00 PM)94% (Jun 22, 12:30 AM)30.18 "Hg (Jun 22, 12:30 AM)
Low59 °F (Jun 24, 5:00 AM)15% (Jun 29, 5:30 PM)29.95 "Hg (Jun 20, 2:30 AM)
Average73 °F57%30.05 "Hg
* Reported Jun 16 3:00 PM — Jul 1 3:30 PM, Lisbon, Weather by CustomWeather, © 2015

Note: Actual official high and low records may vary slightly from our data, if they occured in-between our weather recording intervals... More about our weather records

Advertising

Lisbon weather history for previous 24 hours

 ConditionsComfort  
Time TempWeatherWind HumidityBarometerVisibility
3:30 PM
Wed, Jul 1
68 °FRain. Scattered clouds.12 mph94%30.01 "Hg4 mi
3:00 PM70 °FScattered clouds.14 mph83%30.01 "HgN/A
2:30 PM72 °FScattered showers. Passing clouds.14 mph73%30.01 "HgN/A
2:00 PM72 °FPassing clouds.13 mph73%30.01 "HgN/A
1:30 PM73 °FPassing clouds.13 mph69%30.01 "HgN/A
1:00 PM73 °FPassing clouds.10 mph69%30.01 "HgN/A
12:30 PM72 °FPassing clouds.9 mph73%30.01 "HgN/A
12:00 PM73 °FPassing clouds.5 mph69%30.01 "HgN/A
11:30 AM73 °FPassing clouds.3 mph65%30.01 "HgN/A
11:00 AM72 °FScattered clouds.5 mph69%30.01 "HgN/A
10:30 AM72 °FScattered clouds.3 mph69%30.01 "HgN/A
10:00 AM70 °FPartly sunny.3 mph73%30.01 "HgN/A
9:30 AM68 °FPartly sunny.3 mph78%30.01 "HgN/A
9:00 AM68 °FPassing clouds.2 mph78%30.01 "HgN/A
8:30 AM66 °FPassing clouds.3 mph83%30.01 "HgN/A
8:00 AM66 °FPassing clouds.3 mph83%29.98 "HgN/A
7:30 AM64 °FPassing clouds.3 mph88%29.98 "HgN/A
7:00 AM64 °FClear.No wind88%29.98 "HgN/A
6:30 AM63 °FPassing clouds.1 mph88%29.98 "HgN/A
6:00 AM64 °FPassing clouds.No wind83%29.98 "HgN/A
5:30 AM63 °FPassing clouds.2 mph88%29.98 "HgN/A
5:00 AM64 °FPassing clouds.1 mph88%29.98 "HgN/A
4:30 AM64 °FPassing clouds.2 mph88%29.98 "HgN/A
3:30 AM64 °FPassing clouds.3 mph83%29.98 "HgN/A
3:00 AM63 °FPassing clouds.3 mph88%30.01 "HgN/A
2:30 AM63 °FClear.3 mph88%29.98 "Hg10 mi
2:00 AM63 °FClear.1 mph83%29.98 "Hg10 mi
1:30 AM63 °FPassing clouds.2 mph88%29.98 "HgN/A
1:00 AM63 °FPassing clouds.2 mph88%30.01 "HgN/A
12:30 AM64 °FPassing clouds.5 mph83%30.01 "HgN/A
12:00 AM64 °FPassing clouds.5 mph83%30.01 "HgN/A
11:30 PM
Tue, Jun 30
64 °FPassing clouds.8 mph83%30.01 "HgN/A
11:00 PM64 °FPassing clouds.7 mph83%30.01 "HgN/A
10:30 PM64 °FPassing clouds.7 mph83%30.01 "HgN/A
10:00 PM64 °FPassing clouds.9 mph88%29.98 "HgN/A
9:30 PM64 °FPassing clouds.12 mph88%29.98 "HgN/A
9:00 PM66 °FPassing clouds.14 mph83%29.98 "HgN/A
8:30 PM68 °FPassing clouds.12 mph78%29.95 "HgN/A
8:00 PM68 °FPassing clouds.12 mph78%29.98 "HgN/A
7:30 PM70 °FPassing clouds.12 mph73%29.95 "HgN/A
7:00 PM70 °FPassing clouds.14 mph73%29.95 "HgN/A
6:00 PM77 °FPassing clouds.12 mph57%29.95 "HgN/A
5:30 PM79 °FPassing clouds.12 mph54%29.95 "HgN/A
5:00 PM81 °FPassing clouds.10 mph51%29.95 "HgN/A
4:00 PM82 °FPassing clouds.7 mph48%29.95 "HgN/A
Weather by CustomWeather, © 2015

See weather overviewHow to use our weather pages